Location: Croisilles
(50.1998°N, 2.8793°E)
Time: 13:40:46
(UTC+00:00)

BREEZE-M DEB (TANK) - Pass Details

Date: 21 January 2021
Orbit: 310 x 13786 km, 49.6° (Epoch: 26 February)

Event Time Altitude Azimuth Distance (km) Brightness Sun altitude
Rises 17:19:29 0° 261° (W) 2,828 8.4 -8.8°
Reaches altitude 10° 17:22:06 10° 260° (W) 1,458 6.6 -9.2°
Maximum altitude 17:24:44 76° 175° (S) 330 1.7 -9.6°
Enters shadow 17:26:27 15° 89° (E) 977 3.5 -9.9°
